Year,Month,Day,Hour,Minute,Value (Times are PST for temperature in C)
2019,02,09,00,00,-1.80
2019,02,09,00,01,-1.80
2019,02,09,00,02,-1.80
2019,02,09,00,03,-1.80
2019,02,09,00,04,-1.80
2019,02,09,00,05,-1.80
2019,02,09,00,06,-1.80
2019,02,09,00,07,-1.80
2019,02,09,00,08,-1.80
2019,02,09,00,09,-1.80
2019,02,09,00,10,-1.80
2019,02,09,00,11,-1.80
2019,02,09,00,12,-1.80
2019,02,09,00,13,-1.80
2019,02,09,00,14,-1.80
2019,02,09,00,15,-1.80
2019,02,09,00,16,-1.80
2019,02,09,00,17,-1.80
2019,02,09,00,18,-1.80
2019,02,09,00,19,-1.70
2019,02,09,00,20,-1.70
2019,02,09,00,21,-1.70
2019,02,09,00,22,-1.70
2019,02,09,00,23,-1.70
2019,02,09,00,24,-1.70
2019,02,09,00,25,-1.70
2019,02,09,00,26,-1.70
2019,02,09,00,27,-1.70
2019,02,09,00,28,-1.70
2019,02,09,00,29,-1.70
2019,02,09,00,30,-1.70
2019,02,09,00,31,-1.80
2019,02,09,00,32,-1.80
2019,02,09,00,33,-1.80
2019,02,09,00,34,-1.80
2019,02,09,00,35,-1.80
2019,02,09,00,36,-1.80
2019,02,09,00,37,-1.80
2019,02,09,00,38,-1.70
2019,02,09,00,39,-1.70
2019,02,09,00,40,-1.80
2019,02,09,00,41,-1.80
2019,02,09,00,42,-1.80
2019,02,09,00,43,-1.80
2019,02,09,00,44,-1.70
2019,02,09,00,45,-1.70
2019,02,09,00,46,-1.70
2019,02,09,00,47,-1.70
2019,02,09,00,48,-1.70
2019,02,09,00,49,-1.60
2019,02,09,00,50,-1.60
2019,02,09,00,51,-1.60
2019,02,09,00,52,-1.60
2019,02,09,00,53,-1.60
2019,02,09,00,54,-1.60
2019,02,09,00,55,-1.60
2019,02,09,00,56,-1.70
2019,02,09,00,57,-1.70
2019,02,09,00,58,-1.70
2019,02,09,00,59,-1.70
2019,02,09,01,00,-1.70
2019,02,09,01,01,-1.70
2019,02,09,01,02,-1.70
2019,02,09,01,03,-1.70
2019,02,09,01,04,-1.70
2019,02,09,01,05,-1.70
2019,02,09,01,06,-1.70
2019,02,09,01,07,-1.70
2019,02,09,01,08,-1.70
2019,02,09,01,09,-1.70
2019,02,09,01,10,-1.70
2019,02,09,01,11,-1.70
2019,02,09,01,12,-1.70
2019,02,09,01,13,-1.70
2019,02,09,01,14,-1.70
2019,02,09,01,15,-1.70
2019,02,09,01,16,-1.70
2019,02,09,01,17,-1.70
2019,02,09,01,18,-1.70
2019,02,09,01,19,-1.70
2019,02,09,01,20,-1.70
2019,02,09,01,21,-1.60
2019,02,09,01,22,-1.70
2019,02,09,01,23,-1.70
2019,02,09,01,24,-1.70
2019,02,09,01,25,-1.80
2019,02,09,01,26,-1.80
2019,02,09,01,27,-1.80
2019,02,09,01,28,-1.80
2019,02,09,01,29,-1.80
2019,02,09,01,30,-1.80
2019,02,09,01,31,-1.90
2019,02,09,01,32,-1.80
2019,02,09,01,33,-1.80
2019,02,09,01,34,-1.80
2019,02,09,01,35,-1.80
2019,02,09,01,36,-1.80
2019,02,09,01,37,-1.80
2019,02,09,01,38,-1.80
2019,02,09,01,39,-1.80
2019,02,09,01,40,-1.80
2019,02,09,01,41,-1.80
2019,02,09,01,42,-1.80
2019,02,09,01,43,-1.80
2019,02,09,01,44,-1.80
2019,02,09,01,45,-1.80
2019,02,09,01,46,-1.80
2019,02,09,01,47,-1.80
2019,02,09,01,48,-1.80
2019,02,09,01,49,-1.80
2019,02,09,01,50,-1.80
2019,02,09,01,51,-1.80
2019,02,09,01,52,-1.80
2019,02,09,01,53,-1.80
2019,02,09,01,54,-1.80
2019,02,09,01,55,-1.80
2019,02,09,01,56,-1.80
2019,02,09,02,39,-1.80
2019,02,09,02,40,-1.80
2019,02,09,02,41,-1.80
2019,02,09,02,42,-1.80
2019,02,09,02,43,-1.80
2019,02,09,02,44,-1.80
2019,02,09,02,45,-1.80
2019,02,09,02,46,-1.80
2019,02,09,02,47,-1.80
2019,02,09,02,48,-1.80
2019,02,09,02,49,-1.80
2019,02,09,02,50,-1.80
2019,02,09,02,51,-1.80
2019,02,09,02,52,-1.90
2019,02,09,02,53,-1.90
2019,02,09,02,54,-1.90
2019,02,09,02,55,-1.90
2019,02,09,02,56,-1.90
2019,02,09,02,57,-1.90
2019,02,09,02,58,-1.90
2019,02,09,02,59,-1.90
2019,02,09,03,00,-1.90
2019,02,09,03,01,-1.90
2019,02,09,03,02,-1.90
2019,02,09,03,03,-1.90
2019,02,09,03,04,-1.90
2019,02,09,03,05,-1.90
2019,02,09,03,06,-1.90
2019,02,09,03,07,-1.90
2019,02,09,03,08,-1.90
2019,02,09,03,09,-2.00
2019,02,09,03,10,-2.00
2019,02,09,03,11,-2.10
2019,02,09,03,12,-2.10
2019,02,09,03,13,-2.10
2019,02,09,03,14,-2.10
2019,02,09,03,15,-2.10
2019,02,09,03,16,-2.10
2019,02,09,03,17,-2.20
2019,02,09,03,18,-2.20
2019,02,09,03,19,-2.20
2019,02,09,03,20,-2.30
2019,02,09,03,21,-2.30
2019,02,09,03,22,-2.30
2019,02,09,03,23,-2.40
2019,02,09,03,24,-2.40
2019,02,09,03,25,-2.40
2019,02,09,03,26,-2.40
2019,02,09,03,27,-2.40
2019,02,09,03,28,-2.40
2019,02,09,03,29,-2.40
2019,02,09,03,30,-2.40
2019,02,09,03,31,-2.40
2019,02,09,03,32,-2.30
2019,02,09,03,33,-2.30
2019,02,09,03,34,-2.30
2019,02,09,03,35,-2.30
2019,02,09,03,36,-2.40
2019,02,09,03,37,-2.40
2019,02,09,03,38,-2.40
2019,02,09,03,39,-2.40
2019,02,09,03,40,-2.40
2019,02,09,03,41,-2.40
2019,02,09,03,42,-2.40
2019,02,09,03,43,-2.40
2019,02,09,03,44,-2.40
2019,02,09,03,45,-2.40
2019,02,09,03,46,-2.30
2019,02,09,03,47,-2.30
2019,02,09,03,48,-2.30
2019,02,09,03,49,-2.30
2019,02,09,03,50,-2.30
2019,02,09,03,51,-2.40
2019,02,09,03,52,-2.40
2019,02,09,03,53,-2.40
2019,02,09,03,54,-2.40
2019,02,09,03,55,-2.40
2019,02,09,03,56,-2.40
2019,02,09,03,57,-2.40
2019,02,09,03,58,-2.40
2019,02,09,03,59,-2.40
2019,02,09,04,00,-2.50
2019,02,09,04,01,-2.40
2019,02,09,04,02,-2.40
2019,02,09,04,03,-2.40
2019,02,09,04,04,-2.40
2019,02,09,05,02,-2.20
2019,02,09,05,03,-2.20
2019,02,09,05,04,-2.20
2019,02,09,05,05,-2.20
2019,02,09,05,06,-2.20
2019,02,09,05,07,-2.20
2019,02,09,05,08,-2.20
2019,02,09,05,09,-2.20
2019,02,09,05,10,-2.20
2019,02,09,05,11,-2.10
2019,02,09,05,12,-2.10
2019,02,09,05,13,-2.10
2019,02,09,05,14,-2.10
2019,02,09,05,15,-2.10
2019,02,09,05,55,-2.00
2019,02,09,05,56,-2.00
2019,02,09,05,57,-2.00
2019,02,09,05,58,-2.10
2019,02,09,05,59,-2.10
2019,02,09,06,00,-2.00
2019,02,09,06,01,-2.00
2019,02,09,06,02,-2.00
2019,02,09,06,03,-2.00
2019,02,09,06,04,-1.90
2019,02,09,06,05,-1.90
2019,02,09,06,06,-1.90
2019,02,09,06,07,-2.00
2019,02,09,06,08,-1.90
2019,02,09,06,09,-1.90
2019,02,09,06,10,-1.90
2019,02,09,06,11,-1.90
2019,02,09,06,12,-1.90
2019,02,09,06,13,-1.90
2019,02,09,06,14,-1.90
2019,02,09,06,15,-1.90
2019,02,09,06,16,-1.90
2019,02,09,06,17,-1.90
2019,02,09,06,18,-1.80
2019,02,09,06,19,-1.80
2019,02,09,06,20,-1.90
2019,02,09,06,21,-1.90
2019,02,09,06,22,-1.90
2019,02,09,06,23,-1.90
2019,02,09,06,24,-1.90
2019,02,09,06,25,-1.90
2019,02,09,06,26,-1.80
2019,02,09,06,27,-1.80
2019,02,09,06,28,-1.90
2019,02,09,06,29,-1.90
2019,02,09,06,30,-1.90
2019,02,09,06,31,-1.90
2019,02,09,06,32,-1.90
2019,02,09,06,33,-1.90
2019,02,09,06,34,-1.90
2019,02,09,06,35,-1.90
2019,02,09,06,36,-1.90
2019,02,09,06,37,-1.80
2019,02,09,06,38,-1.80
2019,02,09,06,39,-1.80
2019,02,09,06,40,-1.80
2019,02,09,06,41,-1.80
2019,02,09,06,42,-1.80
2019,02,09,06,43,-1.80
2019,02,09,06,44,-1.80
2019,02,09,06,45,-1.80
2019,02,09,06,46,-1.80
2019,02,09,06,47,-1.80
2019,02,09,06,48,-1.80
2019,02,09,06,49,-1.80
2019,02,09,06,50,-1.80
2019,02,09,06,51,-1.80
2019,02,09,06,52,-1.80
2019,02,09,06,53,-1.80
2019,02,09,06,54,-1.80
2019,02,09,06,55,-1.80
2019,02,09,06,56,-1.80
2019,02,09,06,57,-1.90
2019,02,09,06,58,-1.90
2019,02,09,06,59,-1.90
2019,02,09,07,00,-1.90
2019,02,09,07,01,-1.90
2019,02,09,07,02,-1.90
2019,02,09,07,03,-1.90
2019,02,09,07,04,-1.80
2019,02,09,07,05,-1.80
2019,02,09,07,06,-1.80
2019,02,09,07,07,-1.80
2019,02,09,07,08,-1.80
2019,02,09,07,09,-1.80
2019,02,09,07,10,-1.80
2019,02,09,07,11,-1.80
2019,02,09,07,12,-1.80
2019,02,09,07,13,-1.80
2019,02,09,07,14,-1.80
2019,02,09,07,15,-1.80
2019,02,09,07,16,-1.80
2019,02,09,07,17,-1.80
2019,02,09,07,18,-1.80
2019,02,09,07,19,-1.80
2019,02,09,07,20,-1.80
2019,02,09,07,21,-1.80
2019,02,09,07,22,-1.80
2019,02,09,07,23,-1.80
2019,02,09,07,24,-1.80
2019,02,09,07,25,-1.80
2019,02,09,07,26,-1.70
2019,02,09,07,27,-1.70
2019,02,09,07,28,-1.70
2019,02,09,07,29,-1.70
2019,02,09,07,30,-1.70
2019,02,09,07,31,-1.70
2019,02,09,07,32,-1.70
2019,02,09,07,33,-1.70
2019,02,09,07,34,-1.70
2019,02,09,07,35,-1.70
2019,02,09,07,36,-1.80
2019,02,09,07,37,-1.80
2019,02,09,07,38,-1.80
2019,02,09,07,39,-1.80
2019,02,09,07,40,-1.80
2019,02,09,07,41,-1.80
2019,02,09,07,42,-1.80
2019,02,09,07,43,-1.80
2019,02,09,07,44,-1.70
2019,02,09,07,45,-1.70
2019,02,09,07,46,-1.70
2019,02,09,07,47,-1.70
2019,02,09,07,48,-1.70
2019,02,09,07,49,-1.70
2019,02,09,07,50,-1.70
2019,02,09,07,51,-1.70
2019,02,09,07,52,-1.70
2019,02,09,07,53,-1.70
2019,02,09,07,54,-1.70
2019,02,09,07,55,-1.70
2019,02,09,07,56,-1.70
2019,02,09,07,57,-1.70
2019,02,09,07,58,-1.70
2019,02,09,07,59,-1.70
2019,02,09,08,00,-1.70
2019,02,09,08,01,-1.80
2019,02,09,08,02,-1.80
2019,02,09,08,03,-1.80
2019,02,09,08,04,-1.80
2019,02,09,08,05,-1.80
2019,02,09,08,06,-1.80
2019,02,09,12,28,-0.90
2019,02,09,12,29,-0.90
2019,02,09,12,30,-0.90
2019,02,09,12,31,-0.90
2019,02,09,12,32,-0.90
2019,02,09,12,33,-1.00
2019,02,09,12,34,-1.00
2019,02,09,12,35,-0.90
2019,02,09,12,36,-0.90
2019,02,09,12,37,-0.90
2019,02,09,12,38,-0.90
2019,02,09,12,39,-1.00
2019,02,09,12,40,-1.00
2019,02,09,12,41,-1.00
2019,02,09,12,42,-1.00
2019,02,09,12,43,-1.00
2019,02,09,12,44,-0.90
2019,02,09,12,45,-1.00
2019,02,09,12,46,-1.00
2019,02,09,12,47,-0.90
2019,02,09,12,48,-0.90
2019,02,09,12,49,-0.90
2019,02,09,12,50,-0.90
2019,02,09,12,51,-0.90
2019,02,09,12,52,-0.90
2019,02,09,12,53,-1.00
2019,02,09,12,54,-1.00
2019,02,09,12,55,-1.00
2019,02,09,12,56,-1.00
2019,02,09,12,57,-1.00
2019,02,09,12,58,-1.00
2019,02,09,12,59,-1.00
2019,02,09,13,00,-1.00
2019,02,09,13,01,-1.00
2019,02,09,13,02,-0.90
2019,02,09,13,03,-0.90
2019,02,09,13,04,-0.90
2019,02,09,13,05,-0.90
2019,02,09,13,06,-0.90
2019,02,09,13,07,-0.90
2019,02,09,13,08,-0.90
2019,02,09,13,09,-0.90
2019,02,09,13,10,-0.90
2019,02,09,13,11,-0.90
2019,02,09,13,12,-0.90
2019,02,09,13,13,-0.90
2019,02,09,13,14,-0.90
2019,02,09,13,15,-0.90
2019,02,09,13,16,-0.90
2019,02,09,13,17,-0.80
2019,02,09,13,18,-0.80
2019,02,09,13,19,-0.80
2019,02,09,13,20,-0.80
2019,02,09,13,21,-0.90
2019,02,09,13,22,-0.90
2019,02,09,13,23,-0.90
2019,02,09,13,24,-0.90
2019,02,09,13,25,-0.90
2019,02,09,13,26,-0.90
2019,02,09,13,27,-0.90
2019,02,09,13,28,-0.90
2019,02,09,13,29,-0.90
2019,02,09,13,30,-0.90
2019,02,09,13,31,-0.90
2019,02,09,13,32,-0.90
2019,02,09,13,33,-0.90
2019,02,09,13,34,-0.90
2019,02,09,13,35,-0.90
2019,02,09,13,36,-0.90
2019,02,09,13,37,-0.90
2019,02,09,13,38,-0.90
2019,02,09,13,39,-0.90
2019,02,09,13,40,-0.90
2019,02,09,13,41,-0.90
2019,02,09,13,42,-0.90
2019,02,09,13,43,-0.90
2019,02,09,13,44,-0.90
2019,02,09,13,45,-0.90
2019,02,09,13,46,-0.90
2019,02,09,13,47,-0.90
2019,02,09,13,48,-0.90
2019,02,09,13,49,-1.00
2019,02,09,13,50,-1.00
2019,02,09,13,51,-1.00
2019,02,09,13,52,-1.00
2019,02,09,13,53,-1.00
2019,02,09,13,54,-1.00
2019,02,09,13,55,-1.00
2019,02,09,13,56,-1.00
2019,02,09,13,57,-1.00
2019,02,09,13,58,-0.90
2019,02,09,13,59,-0.90
2019,02,09,14,00,-0.90
2019,02,09,14,01,-0.90
2019,02,09,14,02,-0.90
2019,02,09,14,03,-0.90
2019,02,09,14,04,-0.90
2019,02,09,14,05,-0.90
2019,02,09,14,06,-0.90
2019,02,09,14,07,-0.90
2019,02,09,14,08,-0.90
2019,02,09,14,09,-0.90
2019,02,09,14,10,-0.90
2019,02,09,14,11,-0.90
2019,02,09,14,12,-0.90
2019,02,09,14,13,-0.90
2019,02,09,14,14,-0.90
2019,02,09,14,15,-0.90
2019,02,09,14,16,-0.80
2019,02,09,14,17,-0.80
2019,02,09,14,18,-0.80
2019,02,09,14,19,-0.80
2019,02,09,14,20,-0.80
2019,02,09,14,21,-0.80
2019,02,09,14,22,-0.80
2019,02,09,14,23,-0.80
2019,02,09,14,24,-0.80
2019,02,09,14,25,-0.80
2019,02,09,14,26,-0.80
2019,02,09,14,27,-0.80
2019,02,09,14,28,-0.80
2019,02,09,14,29,-0.80
2019,02,09,14,30,-0.80
2019,02,09,14,31,-0.80
2019,02,09,14,32,-0.70
2019,02,09,14,33,-0.70
2019,02,09,14,34,-0.70
2019,02,09,14,35,-0.70
2019,02,09,14,36,-0.70
2019,02,09,14,37,-0.60
2019,02,09,14,38,-0.60
2019,02,09,14,39,-0.60
2019,02,09,14,40,-0.60
2019,02,09,14,41,-0.60
2019,02,09,14,42,-0.60
2019,02,09,14,43,-0.60
2019,02,09,14,44,-0.60
2019,02,09,14,45,-0.60
2019,02,09,14,46,-0.60
2019,02,09,14,47,-0.50
2019,02,09,14,48,-0.50
2019,02,09,14,49,-0.40
2019,02,09,14,50,-0.40
2019,02,09,14,51,-0.40
2019,02,09,14,52,-0.40
2019,02,09,14,53,-0.40
2019,02,09,14,54,-0.30
2019,02,09,14,55,-0.30
2019,02,09,14,56,-0.30
2019,02,09,14,57,-0.30
2019,02,09,14,58,-0.30
2019,02,09,14,59,-0.30
2019,02,09,15,00,-0.30
2019,02,09,15,01,-0.20
2019,02,09,15,02,-0.20
2019,02,09,15,03,-0.20
2019,02,09,15,04,-0.20
2019,02,09,15,05,-0.20
2019,02,09,15,06,-0.20
2019,02,09,15,07,-0.10
2019,02,09,15,08,-0.10
2019,02,09,15,09,-0.10
2019,02,09,15,10,-0.10
2019,02,09,15,11,-0.10
2019,02,09,15,12,-0.10
2019,02,09,15,13,-0.10
2019,02,09,15,14,-0.10
2019,02,09,15,15,-0.10
2019,02,09,15,16,-0.10
2019,02,09,15,17,-0.20
2019,02,09,15,18,-0.10
2019,02,09,15,19,-0.20
2019,02,09,15,20,-0.20
2019,02,09,15,21,-0.20
2019,02,09,15,22,-0.20
2019,02,09,15,23,-0.20
2019,02,09,15,24,-0.20
2019,02,09,15,25,-0.30
2019,02,09,15,26,-0.30
2019,02,09,15,27,-0.30
2019,02,09,15,28,-0.30
2019,02,09,15,29,-0.30
2019,02,09,15,30,-0.30
2019,02,09,15,31,-0.30
2019,02,09,15,32,-0.30
2019,02,09,15,33,-0.30
2019,02,09,15,34,-0.30
2019,02,09,15,35,-0.30
2019,02,09,15,36,-0.20
2019,02,09,15,37,-0.30
2019,02,09,15,38,-0.30
2019,02,09,15,39,-0.30
2019,02,09,15,40,-0.30
2019,02,09,15,41,-0.30
2019,02,09,15,42,-0.30
2019,02,09,15,43,-0.20
2019,02,09,15,44,-0.20
2019,02,09,15,45,-0.20
2019,02,09,15,46,-0.20
2019,02,09,15,47,-0.20
2019,02,09,15,48,-0.20
2019,02,09,15,49,-0.20
2019,02,09,15,50,-0.20
2019,02,09,15,51,-0.20
2019,02,09,15,52,-0.20
2019,02,09,15,53,-0.20
2019,02,09,15,54,-0.20
2019,02,09,15,55,-0.20
2019,02,09,15,56,-0.10
2019,02,09,15,57,-0.10
2019,02,09,15,58,-0.10
2019,02,09,15,59,-0.10
2019,02,09,16,00,-0.10
2019,02,09,16,01,-0.10
2019,02,09,16,02,-0.10
2019,02,09,16,03,-0.10
2019,02,09,16,04,-0.10
2019,02,09,16,05,-0.10
2019,02,09,16,06,-0.10
2019,02,09,16,07,0.00
2019,02,09,16,08,0.00
2019,02,09,16,09,0.00
2019,02,09,16,10,0.00
2019,02,09,16,11,0.00
2019,02,09,16,12,0.00
2019,02,09,16,13,0.10
2019,02,09,16,14,0.10
2019,02,09,16,15,0.10
2019,02,09,16,16,0.10
2019,02,09,16,17,0.10
2019,02,09,16,18,0.10
2019,02,09,16,19,0.10
2019,02,09,16,20,0.10
2019,02,09,16,21,0.10
2019,02,09,16,22,0.10
2019,02,09,16,23,0.10
2019,02,09,16,24,0.20
2019,02,09,16,25,0.20
2019,02,09,16,26,0.20
2019,02,09,16,27,0.20
2019,02,09,16,28,0.20
2019,02,09,16,29,0.20
2019,02,09,16,30,0.20
2019,02,09,16,31,0.20
2019,02,09,16,32,0.20
2019,02,09,16,33,0.20
2019,02,09,16,34,0.20
2019,02,09,16,35,0.20
2019,02,09,16,36,0.20
2019,02,09,16,37,0.20
2019,02,09,16,38,0.20
2019,02,09,16,39,0.20
2019,02,09,16,40,0.20
2019,02,09,16,41,0.20
2019,02,09,16,42,0.20
2019,02,09,16,43,0.20
2019,02,09,16,44,0.20
2019,02,09,16,45,0.20
2019,02,09,16,46,0.20
2019,02,09,16,47,0.20
2019,02,09,16,48,0.20
2019,02,09,16,49,0.20
2019,02,09,16,50,0.20
2019,02,09,16,51,0.20
2019,02,09,16,52,0.20
2019,02,09,16,53,0.20
2019,02,09,16,54,0.30
2019,02,09,16,55,0.30
2019,02,09,16,56,0.30
2019,02,09,16,57,0.30
2019,02,09,16,58,0.30
2019,02,09,16,59,0.30
2019,02,09,17,00,0.30
2019,02,09,17,01,0.30
2019,02,09,17,02,0.30
2019,02,09,17,03,0.30
2019,02,09,17,04,0.30
2019,02,09,17,05,0.20
2019,02,09,17,06,0.20
2019,02,09,17,07,0.20
2019,02,09,17,08,0.20
2019,02,09,17,09,0.20
2019,02,09,17,10,0.20
2019,02,09,17,11,0.10
2019,02,09,17,12,0.10
2019,02,09,17,13,0.10
2019,02,09,17,14,0.10
2019,02,09,17,15,0.10
2019,02,09,17,16,0.00
2019,02,09,17,17,0.00
2019,02,09,17,18,0.00
2019,02,09,17,19,0.00
2019,02,09,17,20,-0.10
2019,02,09,17,21,-0.10
2019,02,09,17,22,-0.10
2019,02,09,17,23,-0.10
2019,02,09,17,24,-0.10
2019,02,09,17,25,-0.10
2019,02,09,17,26,-0.10
2019,02,09,17,27,-0.20
2019,02,09,17,28,-0.20
2019,02,09,17,29,-0.20
2019,02,09,17,30,-0.20
2019,02,09,17,31,-0.20
2019,02,09,17,32,-0.30
2019,02,09,17,33,-0.30
2019,02,09,17,34,-0.30
2019,02,09,17,35,-0.30
2019,02,09,17,36,-0.30
2019,02,09,17,37,-0.30
2019,02,09,17,38,-0.30
2019,02,09,17,39,-0.30
2019,02,09,17,40,-0.30
2019,02,09,17,41,-0.30
2019,02,09,17,42,-0.30
2019,02,09,17,43,-0.30
2019,02,09,17,44,-0.30
2019,02,09,17,45,-0.30
2019,02,09,17,46,-0.30
2019,02,09,17,47,-0.30
2019,02,09,17,48,-0.30
2019,02,09,17,49,-0.30
2019,02,09,17,50,-0.30
2019,02,09,17,51,-0.30
2019,02,09,17,52,-0.30
2019,02,09,17,53,-0.30
2019,02,09,17,54,-0.30
2019,02,09,17,55,-0.40
2019,02,09,17,56,-0.40
2019,02,09,17,57,-0.30
2019,02,09,17,58,-0.40
2019,02,09,17,59,-0.30
2019,02,09,18,00,-0.30
2019,02,09,18,01,-0.30
2019,02,09,18,02,-0.30
2019,02,09,18,03,-0.40
2019,02,09,18,04,-0.40
2019,02,09,18,05,-0.40
2019,02,09,18,06,-0.40
2019,02,09,18,07,-0.40
2019,02,09,18,08,-0.40
2019,02,09,18,09,-0.40
2019,02,09,18,10,-0.40
2019,02,09,18,11,-0.30
2019,02,09,18,12,-0.30
2019,02,09,18,13,-0.30
2019,02,09,18,14,-0.30
2019,02,09,18,15,-0.40
2019,02,09,18,16,-0.40
2019,02,09,18,17,-0.40
2019,02,09,18,18,-0.40
2019,02,09,18,19,-0.40
2019,02,09,18,20,-0.40
2019,02,09,18,21,-0.40
2019,02,09,18,22,-0.40
2019,02,09,18,23,-0.40
2019,02,09,18,24,-0.40
2019,02,09,18,25,-0.40
2019,02,09,18,26,-0.40
2019,02,09,18,27,-0.40
2019,02,09,18,28,-0.40
2019,02,09,18,29,-0.40
2019,02,09,18,30,-0.40
2019,02,09,18,31,-0.40
2019,02,09,18,32,-0.40
2019,02,09,18,33,-0.40
2019,02,09,18,34,-0.40
2019,02,09,18,35,-0.40
2019,02,09,18,36,-0.40
2019,02,09,18,37,-0.40
2019,02,09,18,38,-0.40
2019,02,09,18,39,-0.40
2019,02,09,18,40,-0.40
2019,02,09,18,41,-0.40
2019,02,09,18,42,-0.40
2019,02,09,18,43,-0.40
2019,02,09,18,44,-0.40
2019,02,09,18,45,-0.40
2019,02,09,18,46,-0.40
2019,02,09,18,47,-0.40
2019,02,09,18,48,-0.40
2019,02,09,18,49,-0.40
2019,02,09,18,50,-0.40
2019,02,09,18,51,-0.40
2019,02,09,18,52,-0.40
2019,02,09,18,53,-0.40
2019,02,09,18,54,-0.40
2019,02,09,18,55,-0.40
2019,02,09,18,56,-0.40
2019,02,09,18,57,-0.40
2019,02,09,18,58,-0.40
2019,02,09,18,59,-0.40
2019,02,09,19,00,-0.40
2019,02,09,19,01,-0.40
2019,02,09,19,05,-0.40
2019,02,09,19,06,-0.40
2019,02,09,19,07,-0.40
2019,02,09,19,08,-0.40
2019,02,09,19,09,-0.40
2019,02,09,19,10,-0.40
2019,02,09,19,11,-0.40
2019,02,09,19,12,-0.40
2019,02,09,19,13,-0.40
2019,02,09,19,14,-0.40
2019,02,09,19,15,-0.40
2019,02,09,19,16,-0.40
2019,02,09,19,17,-0.40
2019,02,09,19,18,-0.40
2019,02,09,19,19,-0.40
2019,02,09,19,20,-0.40
2019,02,09,19,21,-0.40
2019,02,09,19,22,-0.40
2019,02,09,19,23,-0.40
2019,02,09,19,24,-0.40
2019,02,09,19,25,-0.40
2019,02,09,19,26,-0.40
2019,02,09,19,27,-0.40
2019,02,09,19,28,-0.40
2019,02,09,19,29,-0.40
2019,02,09,19,30,-0.40
2019,02,09,19,31,-0.40
2019,02,09,19,32,-0.50
2019,02,09,19,33,-0.50
2019,02,09,19,34,-0.50
2019,02,09,19,35,-0.50
2019,02,09,19,36,-0.50
2019,02,09,19,37,-0.50
2019,02,09,19,38,-0.50
2019,02,09,19,39,-0.50
2019,02,09,19,40,-0.50
2019,02,09,19,41,-0.50
2019,02,09,19,42,-0.50
2019,02,09,19,43,-0.50
2019,02,09,19,44,-0.50
2019,02,09,19,45,-0.50
2019,02,09,19,46,-0.50
2019,02,09,19,47,-0.50
2019,02,09,19,48,-0.50
2019,02,09,19,49,-0.50
2019,02,09,19,50,-0.50
2019,02,09,19,51,-0.50
2019,02,09,19,52,-0.50
2019,02,09,19,53,-0.50
2019,02,09,19,54,-0.50
2019,02,09,19,55,-0.50
2019,02,09,19,56,-0.50
2019,02,09,19,57,-0.50
2019,02,09,19,58,-0.50
2019,02,09,19,59,-0.50
2019,02,09,20,00,-0.60
2019,02,09,20,01,-0.60
2019,02,09,20,02,-0.60
2019,02,09,20,03,-0.60
2019,02,09,20,04,-0.60
2019,02,09,20,05,-0.60
2019,02,09,20,06,-0.60
2019,02,09,20,07,-0.60
2019,02,09,20,08,-0.60
2019,02,09,20,09,-0.60
2019,02,09,20,10,-0.60
2019,02,09,20,11,-0.60
2019,02,09,20,12,-0.60
2019,02,09,20,13,-0.60
2019,02,09,20,14,-0.60
2019,02,09,20,15,-0.50
2019,02,09,20,16,-0.50
2019,02,09,20,17,-0.50
2019,02,09,20,18,-0.50
2019,02,09,20,19,-0.50
2019,02,09,20,20,-0.50
2019,02,09,20,21,-0.50
2019,02,09,20,22,-0.50
2019,02,09,20,23,-0.50
2019,02,09,20,24,-0.50
2019,02,09,20,25,-0.50
2019,02,09,20,26,-0.50
2019,02,09,20,27,-0.50
2019,02,09,20,28,-0.50
2019,02,09,20,29,-0.50
2019,02,09,20,30,-0.60
2019,02,09,20,31,-0.60
2019,02,09,20,32,-0.60
2019,02,09,20,33,-0.60
2019,02,09,20,34,-0.60
2019,02,09,20,35,-0.60
2019,02,09,20,36,-0.60
2019,02,09,20,37,-0.60
2019,02,09,20,38,-0.60
2019,02,09,20,39,-0.60
2019,02,09,20,40,-0.50
2019,02,09,20,41,-0.60
2019,02,09,20,42,-0.50
2019,02,09,20,43,-0.60
2019,02,09,20,44,-0.60
2019,02,09,20,45,-0.60
2019,02,09,20,46,-0.60
2019,02,09,20,47,-0.60
2019,02,09,20,48,-0.60
2019,02,09,20,49,-0.60
2019,02,09,20,50,-0.60
2019,02,09,20,51,-0.60
2019,02,09,20,52,-0.60
2019,02,09,20,53,-0.60
2019,02,09,20,54,-0.60
2019,02,09,20,55,-0.60
2019,02,09,20,56,-0.60
2019,02,09,20,57,-0.60
2019,02,09,20,58,-0.60
2019,02,09,20,59,-0.60
2019,02,09,21,00,-0.60
2019,02,09,21,01,-0.60
2019,02,09,21,02,-0.60
2019,02,09,21,03,-0.60
2019,02,09,21,04,-0.60
2019,02,09,21,05,-0.60
2019,02,09,21,06,-0.60
2019,02,09,21,07,-0.60
2019,02,09,21,08,-0.60
2019,02,09,21,09,-0.60
2019,02,09,21,10,-0.60
2019,02,09,21,11,-0.60
2019,02,09,21,12,-0.60
2019,02,09,21,13,-0.60
2019,02,09,21,14,-0.60
2019,02,09,21,15,-0.60
2019,02,09,21,16,-0.60
2019,02,09,21,17,-0.60
2019,02,09,21,18,-0.50
2019,02,09,21,19,-0.50
2019,02,09,21,20,-0.50
2019,02,09,21,21,-0.50
2019,02,09,21,22,-0.60
2019,02,09,21,23,-0.60
2019,02,09,21,24,-0.60
2019,02,09,21,25,-0.60
2019,02,09,21,26,-0.60
2019,02,09,21,27,-0.60
2019,02,09,21,28,-0.60
2019,02,09,21,29,-0.60
2019,02,09,21,30,-0.60
2019,02,09,21,31,-0.60
2019,02,09,21,32,-0.60
2019,02,09,21,33,-0.60
2019,02,09,21,34,-0.60
2019,02,09,21,35,-0.60
2019,02,09,21,36,-0.60
2019,02,09,21,37,-0.60
2019,02,09,21,38,-0.60
2019,02,09,21,39,-0.60
2019,02,09,21,40,-0.50
2019,02,09,21,41,-0.60
2019,02,09,21,42,-0.60
2019,02,09,21,43,-0.60
2019,02,09,21,44,-0.60
2019,02,09,21,45,-0.60
2019,02,09,21,46,-0.60
2019,02,09,21,47,-0.60
2019,02,09,21,48,-0.60
2019,02,09,21,49,-0.60
2019,02,09,21,50,-0.60
2019,02,09,21,51,-0.60
2019,02,09,21,52,-0.60
2019,02,09,21,53,-0.60
2019,02,09,21,54,-0.60
2019,02,09,21,55,-0.60
2019,02,09,21,56,-0.60
2019,02,09,21,57,-0.60
2019,02,09,21,58,-0.60
2019,02,09,21,59,-0.60
2019,02,09,22,00,-0.60
2019,02,09,22,01,-0.60
2019,02,09,22,02,-0.60
2019,02,09,22,03,-0.60
2019,02,09,22,04,-0.60
2019,02,09,22,05,-0.60
2019,02,09,22,06,-0.60
2019,02,09,22,07,-0.60
2019,02,09,22,08,-0.60
2019,02,09,22,09,-0.60
2019,02,09,22,10,-0.60
2019,02,09,22,11,-0.60
2019,02,09,22,12,-0.60
2019,02,09,22,13,-0.60
2019,02,09,22,14,-0.60
2019,02,09,22,15,-0.60
2019,02,09,22,16,-0.60
2019,02,09,22,17,-0.60
2019,02,09,22,18,-0.60
2019,02,09,22,19,-0.60
2019,02,09,22,20,-0.60
2019,02,09,22,21,-0.60
2019,02,09,22,22,-0.60
2019,02,09,22,23,-0.60
2019,02,09,22,24,-0.60
2019,02,09,22,25,-0.70
2019,02,09,22,26,-0.70
2019,02,09,22,27,-0.70
2019,02,09,22,28,-0.60
2019,02,09,22,29,-0.70
2019,02,09,22,30,-0.70
2019,02,09,22,31,-0.70
2019,02,09,22,32,-0.70
2019,02,09,22,33,-0.70
2019,02,09,22,34,-0.70
2019,02,09,22,35,-0.70
2019,02,09,22,36,-0.70
2019,02,09,22,37,-0.70
2019,02,09,22,38,-0.70
2019,02,09,22,39,-0.70
2019,02,09,22,40,-0.70
2019,02,09,22,41,-0.70
2019,02,09,22,42,-0.70
2019,02,09,22,43,-0.70
2019,02,09,22,44,-0.70
2019,02,09,22,45,-0.70
2019,02,09,22,46,-0.70
2019,02,09,22,47,-0.70
2019,02,09,22,48,-0.70
2019,02,09,22,49,-0.70
2019,02,09,22,50,-0.70
2019,02,09,22,51,-0.70
2019,02,09,22,52,-0.70
2019,02,09,22,53,-0.70
2019,02,09,22,54,-0.70
2019,02,09,22,55,-0.70
2019,02,09,22,56,-0.70
2019,02,09,22,57,-0.70
2019,02,09,22,58,-0.70
2019,02,09,22,59,-0.70
2019,02,09,23,00,-0.70
2019,02,09,23,01,-0.70
2019,02,09,23,02,-0.70
2019,02,09,23,03,-0.70
2019,02,09,23,04,-0.80
2019,02,09,23,05,-0.80
2019,02,09,23,06,-0.80
2019,02,09,23,07,-0.80
2019,02,09,23,08,-0.80
2019,02,09,23,09,-0.80
2019,02,09,23,10,-0.80
2019,02,09,23,11,-0.80
2019,02,09,23,12,-0.80
2019,02,09,23,13,-0.80
2019,02,09,23,14,-0.80
2019,02,09,23,15,-0.80
2019,02,09,23,16,-0.80
2019,02,09,23,17,-0.80
2019,02,09,23,18,-0.80
2019,02,09,23,19,-0.80
2019,02,09,23,20,-0.70
2019,02,09,23,21,-0.70
2019,02,09,23,22,-0.70
2019,02,09,23,23,-0.70
2019,02,09,23,24,-0.70
2019,02,09,23,25,-0.70
2019,02,09,23,26,-0.70
2019,02,09,23,27,-0.70
2019,02,09,23,28,-0.80
2019,02,09,23,29,-0.80
2019,02,09,23,30,-0.80
2019,02,09,23,31,-0.80
2019,02,09,23,32,-0.80
2019,02,09,23,33,-0.90
2019,02,09,23,34,-0.90
2019,02,09,23,35,-0.90
2019,02,09,23,36,-0.90
2019,02,09,23,37,-0.90
2019,02,09,23,38,-0.90
2019,02,09,23,39,-0.90
2019,02,09,23,40,-0.90
2019,02,09,23,41,-0.90
2019,02,09,23,42,-0.90
2019,02,09,23,43,-0.80
2019,02,09,23,44,-0.80
2019,02,09,23,45,-0.80
2019,02,09,23,46,-0.80
2019,02,09,23,47,-0.80
2019,02,09,23,48,-0.80
2019,02,09,23,49,-0.80
2019,02,09,23,50,-0.80
2019,02,09,23,51,-0.80
2019,02,09,23,52,-0.90
2019,02,09,23,53,-0.90
2019,02,09,23,54,-0.90
2019,02,09,23,55,-0.90
2019,02,09,23,56,-0.90
2019,02,09,23,57,-0.90
2019,02,09,23,58,-1.00
2019,02,09,23,59,-1.00
